This demonstration page uses our WeatherBlox Daily Observations layout. Learn more.

Left ArrowRight Arrow

31.84235, -102.49876

Hourly Observations for May 3, 2015

Temp ( °F °C ) Dew Point ( °F °C ) Humidity (%) Winds ( mph kmh ) Pressure ( in mb ) Visibility ( mi km ) Precip ( " mm )
12:53 am 00:53 Clear 67 19.4 42 5.6 41 41 S 14 22 29.84 1010 10 16 0.00 0.00
1:53 am 01:53 Clear 66 18.9 43 6.1 43 43 S 16 26 29.83 1010 10 16 0.00 0.00
2:53 am 02:53 Clear 65 18.3 44 6.7 47 47 S 14 22 29.82 1010 10 16 0.00 0.00
3:53 am 03:53 Clear 63 17.2 44 6.7 50 50 S 15 24 29.80 1009 10 16 0.00 0.00
4:53 am 04:53 Clear 62 16.7 45 7.2 54 54 S 14 22 29.80 1009 10 16 0.00 0.00
5:53 am 05:53 Clear 60 15.6 45 7.2 58 58 SSW 8 13 29.81 1010 10 16 0.00 0.00
6:53 am 06:53 Clear 58 14.4 45 7.2 62 62 SSE 6 9 29.82 1010 10 16 0.00 0.00
7:53 am 07:53 Sunny 62 16.7 47 8.3 58 58 SSE 9 15 29.84 1010 10 16 0.00 0.00
8:53 am 08:53 Sunny 63 17.2 49 9.4 60 60 S 8 13 29.87 1012 10 16 0.00 0.00
9:53 am 09:53 Sunny 67 19.4 51 10.6 57 57 SSE 17 28 29.86 1011 10 16 0.00 0.00
10:53 am 10:53 Sunny 72 22.2 54 12.2 53 53 SSE 14 22 29.86 1011 10 16 0.00 0.00
11:53 am 11:53 Sunny 77 25 54 12.2 45 45 S 16 26 29.86 1011 10 16 0.00 0.00
12:53 pm 12:53 Sunny 81 27.2 52 11.1 37 37 S 14 22 29.84 1010 10 16 0.00 0.00
1:53 pm 13:53 Sunny 84 28.9 52 11.1 33 33 SSE 20 31 29.82 1010 10 16 0.00 0.00
2:53 pm 14:53 Sunny 86 30 51 10.6 30 30 S 16 26 29.80 1009 10 16 0.00 0.00
3:53 pm 15:53 Sunny 85 29.4 49 9.4 29 29 SSE 18 30 29.78 1009 10 16 0.00 0.00
4:53 pm 16:53 Sunny 86 30 46 7.8 25 25 SSE 20 31 29.75 1008 10 16 0.00 0.00
5:53 pm 17:53 Sunny 86 30 48 8.9 27 27 S 17 28 29.75 1008 10 16 0.00 0.00
6:53 pm 18:53 Sunny 82 27.8 52 11.1 35 35 S 20 31 29.76 1008 10 16 0.00 0.00
7:53 pm 19:53 Sunny 76 24.4 53 11.7 45 45 S 17 28 29.78 1008 10 16 0.00 0.00
8:53 pm 20:53 Clear 74 23.3 54 12.2 50 50 S 16 26 29.84 1011 10 16 0.00 0.00
9:53 pm 21:53 Clear 72 22.2 55 12.8 55 55 SSW 10 17 29.88 1012 10 16 0.00 0.00
10:53 pm 22:53 Partly Cloudy 72 22.2 56 13.3 57 57 SSE 13 20 29.84 1011 10 16 0.00 0.00
11:53 pm 23:53 Clear 72 22.2 55 12.8 55 55 S 22 35 29.80 1009 10 16 0.00 0.00

Powered by AerisWeather